Location: Turtle Rock Observatory
(36.6913°N, 81.9708°W)
Time: 08:06:17
(UTC-04:00)

Lacrosse 5 rocket - Visible Passes

Search period start: 24 August 2016 00:00
Search period end: 03 September 2016 00:00
Orbit: 463 x 643 km, 57.0° (Epoch: 22 August)

Date Brightness Start Highest point End Pass type
(mag) Time Alt. Az. Time Alt. Az. Time Alt. Az.
24 Aug 1.9 22:10:35 10° NW 22:13:22 46° NNW 22:13:22 46° NNW visible
25 Aug 3.4 20:28:43 10° N 20:30:19 12° NNE 20:31:54 10° ENE visible
25 Aug 1.5 22:06:22 10° NW 22:09:24 58° NW 22:09:24 58° NW visible
26 Aug 1.6 22:02:15 10° NW 22:05:31 51° WSW 22:05:31 51° WSW visible
27 Aug 2.2 21:58:13 10° WNW 22:01:35 34° SW 22:01:42 34° SW visible
28 Aug 2.8 21:54:21 10° WNW 21:57:19 23° WSW 21:57:58 22° SW visible
29 Aug 3.4 21:50:44 10° W 21:53:00 16° WSW 21:54:21 13° SW visible
30 Aug 3.9 21:47:59 10° WSW 21:48:40 10° WSW 21:49:20 10° SW visible
